Tracking 29799 objects as of 11-Oct-2024
HD Live streaming from Space Station
objects crossing your sky now

THORAD AGENA D DEB

Track THORAD AGENA D DEB now!
10-day predictions


NORAD ID: 4706
Int'l Code: 1970-025BU
Perigee: 1,069.2 km
Apogee: 1,121.1 km
Inclination: 99.8 °
Period: 107.0 minutes
Semi major axis: 7466 km
RCS: 0.0135 m2 (small)
Launch date: April 8, 1970
Source: United States (US)
Launch site: AIR FORCE WESTERN TEST RANGE (AFWTR)

Note: This is SATELLITE DEBRIS
Your satellite tracking list
Your tracking list is empty




NASA's NSSDC Master Catalog

Two Line Element Set (TLE):
1 04706U 70025BU  24284.49536541  .00000199  00000-0  40634-3 0  9997
2 04706  99.8243 185.6615 0034731 111.8861  61.7306 13.45731224674721
Source of the keplerian elements: AFSPC